Simultaneous Nadir Overpasses (SNOs) Predictions

Prediction of SNOs between LANDSAT-8 and METOP-A Satellite Orbit:

Table of predicted SNOs for the next 14.0 days since TLE Epoch: 10/25/2014
Index Date (LANDSAT-8) Time (LANDSAT-8) Lat,Lon (LANDSAT-8) SZA (LANDSAT-8 ) Date (METOP-A) Time (METOP-A) Lat,Lon (METOP-A) SZA (METOP-A ) Distance(km) Time Diff (sec)
1 10/27/2014 06:17:28 81.10, 125.19 96.22 10/27/2014 06:16:21 81.09, 125.02 96.17 3.20 67
2 10/27/2014 07:06:54 -81.12, -66.82 83.72 10/27/2014 07:06:59 -81.13, -66.69 83.70 2.29 5
3 10/30/2014 01:51:41 81.08,-168.65 97.12 10/30/2014 01:50:40 81.09,-168.66 97.09 0.59 61
4 10/30/2014 02:41:07 -81.11, -0.65 82.82 10/30/2014 02:41:19 -81.11, -0.70 82.82 0.97 12
5 11/01/2014 21:25:53 81.10,-101.96 98.06 11/01/2014 21:24:59 81.10,-102.05 98.03 1.58 54
6
